Regional Weather Roundup
Issued by NWS

Home | Current Version | Previous Version | Graphics & Text | Print | Product List | Glossary On
Versions: 1 2 3 4 5 6 7 8 9 10 11 12 13 14 15 16 17 18 19 20 21 22 23 24 25 26 27
000
ASUS45 KBOU 252307
RWRCO

WEATHER ROUNDUP FOR COLORADO
NATIONAL WEATHER SERVICE DENVER/BOULDER CO
500 PM MDT SAT OCT 25 2014

NOTE: "FAIR" INDICATES FEW OR NO CLOUDS BELOW 12000 FEET WITH NO
SIGNIFICANT WEATHER AND/OR OBSTRUCTIONS TO VISIBILITY.

COZ001>005-013-030-031-260000-
...NORTHWEST COLORADO...

CITY           SKY/WX    TMP DP  RH WIND       PRES   REMARKS
CRAIG          SUNNY     73  25  16 SW16      30.13F
HAYDEN         SUNNY     72  21  15 W14       30.15S
MEEKER         SUNNY     72  27  18 S14       30.15F
MOUNT WERNER   NOT AVBL
STEAMBOAT SPGS SUNNY     71  20  14 SW7       30.16F
WALDEN         SUNNY     63  16  16 SW12      30.23F
$$

COZ006>008-011-260000-
...WEST CENTRAL VALLEYS...

CITY           SKY/WX    TMP DP  RH WIND       PRES   REMARKS
GRAND JUNCTION SUNNY     74  31  20 W9        30.07F
MONTROSE       SUNNY     76  30  18 N7        30.15F
EAGLE          SUNNY     72  25  17 W12       30.18F
RIFLE          SUNNY     74  30  19 W14       30.10F
DELTA          SUNNY     81  28  14 SW12      30.10F
NUCLA          SUNNY     73  28  19 S13       30.22F
$$

COZ017>023-064>068-260000-
...SOUTHWEST COLORADO...

CITY           SKY/WX    TMP DP  RH WIND       PRES   REMARKS
DURANGO        SUNNY     70  30  22 W13       30.26F
CORTEZ         SUNNY     74  35  24 SW10      30.21F
PAGOSA SPRINGS SUNNY     69  21  16 SW8G17    30.33S
TELLURIDE      SUNNY     64  21  19 S12G18    30.38F
WOLF CREEK PAS SUNNY     46  21  36 SW23G39     N/A
$$

COZ009-010-012-014-032>034-037-058>063-260000-
...CENTRAL COLORADO...

CITY           SKY/WX    TMP DP  RH WIND       PRES   REMARKS
ASPEN          SUNNY     69  20  15 VRB3      30.24F
BUENA VISTA    SUNNY     70   8   9 SW7       30.25F
COPPER MTN     NOT AVBL
BERTHOUD PASS  FAIR      43  39  87 NW7       30.57S
COTTONWOOD PAS SUNNY     64  -9   5 W3        30.38F
GUNNISON       SUNNY     70  23  17 SW7       30.27F
KREMMLING      SUNNY     70   5   8 SW9G16      N/A
LEADVILLE      SUNNY     59   7  12 SW13G21   30.38S
MONARCH PASS   SUNNY     50  10  20 W20G25    30.64F
SALIDA         SUNNY     73  19  13 S9G18     30.30S
SUNLIGHT       SUNNY     54  23  30 CALM      30.46F
WILKERSON PASS NOT AVBL
$$

COZ069>075-260000-
...SAN LUIS VALLEY/SANGRE DE CRISTO MOUNTAINS...

CITY           SKY/WX    TMP DP  RH WIND       PRES   REMARKS
ALAMOSA        SUNNY     73  12   9 SW18      30.25F
LA VETA PASS   SUNNY     59  18  20 S10G25    30.43S
SAGUACHE       SUNNY     70  23  17 S9        30.28F
$$

COZ035-036-038>040-260000-
...NORTHERN COLORADO FRONT RANGE...

CITY           SKY/WX    TMP DP  RH WIND       PRES   REMARKS
DENVER INTL AP SUNNY     77  20  12 E12       30.07F
DMNS CITY PARK   N/A     77  21  12 E7        30.06F
AURORA         NOT AVBL
FRONT RANGE AP NOT AVBL
ERIE MUNI ARPT SUNNY     79  19  10 SE9       30.06F
BOULDER MUN AP SUNNY     79  25  13 SE3       30.06F
CENTENNIAL     SUNNY     75  19  12 SE16      30.08F
BROOMFIELD     SUNNY     77  23  13 E8        30.10F
FORT COLLINS   SUNNY     79  25  13 SE12      30.05F
LONGMONT       SUNNY     82  22  11 SE3       30.07F
$$

COZ041-046-047-076>085-087-088-260000-
...PIKES PEAK/PALMER DIVIDE AND SOUTHERN FOOTHILLS...

CITY           SKY/WX    TMP DP  RH WIND       PRES   REMARKS
COLO. SPRINGS  SUNNY     75  20  12 S15       30.15F
A. F. ACADEMY  SUNNY     73  17  12 SE14      30.16F
ELLICOTT       NOT AVBL
FALCON         SUNNY     72  19  13 S14       30.20F
FORT CARSON    SUNNY     76  23  14 S12       30.12F
LIMON          SUNNY     77  23  13 SE8       30.10F
MONUMENT HILL  SUNNY     70  19  14 S14       30.18F
TRINIDAD       SUNNY     80  26  13 NE6       30.10F
$$

COZ042>045-048>051-090-091-260000-
...NORTHEAST COLORADO...

CITY           SKY/WX    TMP DP  RH WIND       PRES   REMARKS
GREELEY ARPT   SUNNY     79  23  12 SE9       30.05F
AKRON          CLEAR     77  29  17 E8        30.06F
BURLINGTON     CLEAR     82  33  17 S8        30.02F
WRAY           CLEAR     81  32  17 S6        30.01F
STERLING       CLEAR     82  34  17 SE7       30.01F HAZE
HOLYOKE        CLEAR     81  34  18 E3        30.02F
FORT MORGAN    SUNNY     79  24  13 E5        30.05F
$$

COZ086-089-092>099-260000-
...SOUTHEAST COLORADO...

CITY           SKY/WX    TMP DP  RH WIND       PRES   REMARKS
PUEBLO         SUNNY     82  21  10 SE5       30.04F
LA JUNTA       SUNNY     83  29  14 SE6       30.01F
LAMAR          SUNNY     86  33  15 SE6       29.97F
SPRINGFIELD      N/A     82  32  16 S14       30.03F
$$



USA.gov is the U.S. government's official web portal to all federal, state and local government web resources and services.